FIN4CL EFHK-EFOU

Flight info

Callsign FIN4CL
Flight time 0h 48m
Altitude 36000
Route TEVRU Y75 SUVIB
Aircraft A320/M-SDE3FGHIRWY/LB1

Departure

Time 2026-05-07 13:23
Airport Helsinki Vantaa Airport (EFHK)

Arrival

Time 2026-05-07 14:11
Airport Oulu Airport (EFOU)
Time Latitude Longitude Altitude Speed Heading
2026-05-07 13:12 60.31837 24.96472 167 ft 0 kts 137°
2026-05-07 13:14 60.31840 24.96467 167 ft 2 kts 137°
2026-05-07 13:14 60.31852 24.96443 167 ft 2 kts 137°
2026-05-07 13:15 60.31865 24.96421 167 ft 2 kts 132°
2026-05-07 13:15 60.31878 24.96399 167 ft 2 kts 181°
2026-05-07 13:15 60.31890 24.96404 167 ft 0 kts 234°
2026-05-07 13:16 60.31889 24.96403 167 ft 1 kts 234°
2026-05-07 13:16 60.31870 24.96355 167 ft 6 kts 231°
2026-05-07 13:17 60.31854 24.96288 167 ft 5 kts 256°
2026-05-07 13:17 60.31853 24.96229 167 ft 4 kts 274°
2026-05-07 13:17 60.31869 24.96142 167 ft 10 kts 304°
2026-05-07 13:17 60.31914 24.96053 167 ft 8 kts 318°
2026-05-07 13:18 60.31950 24.95987 170 ft 7 kts 318°
2026-05-07 13:18 60.32000 24.95895 173 ft 10 kts 317°
2026-05-07 13:18 60.32046 24.95809 174 ft 7 kts 317°
2026-05-07 13:18 60.32105 24.95704 173 ft 17 kts 318°
2026-05-07 13:19 60.32191 24.95545 174 ft 16 kts 317°
2026-05-07 13:19 60.32263 24.95410 175 ft 13 kts 317°
2026-05-07 13:19 60.32323 24.95302 177 ft 11 kts 322°
2026-05-07 13:19 60.32430 24.95215 178 ft 21 kts 343°
2026-05-07 13:20 60.32558 24.95131 180 ft 18 kts 342°
2026-05-07 13:20 60.32671 24.95059 180 ft 17 kts 342°
2026-05-07 13:20 60.32785 24.94985 177 ft 17 kts 342°
2026-05-07 13:20 60.32898 24.94900 175 ft 17 kts 329°
2026-05-07 13:21 60.32975 24.94763 178 ft 13 kts 317°
2026-05-07 13:21 60.33031 24.94661 182 ft 8 kts 317°
2026-05-07 13:21 60.33062 24.94603 193 ft 7 kts 317°
2026-05-07 13:21 60.33114 24.94500 196 ft 10 kts 306°
2026-05-07 13:22 60.33115 24.94392 190 ft 7 kts 243°
2026-05-07 13:22 60.33058 24.94267 195 ft 31 kts 227°
2026-05-07 13:22 60.32728 24.93543 181 ft 105 kts 227°
2026-05-07 13:22 60.32112 24.92198 169 ft 159 kts 223°
2026-05-07 13:23 60.31326 24.90535 817 ft 159 kts 225°
2026-05-07 13:23 60.30575 24.88820 1536 ft 165 kts 233°
2026-05-07 13:23 60.30147 24.86521 1916 ft 190 kts 263°
2026-05-07 13:23 60.30382 24.83730 2287 ft 218 kts 291°
2026-05-07 13:24 60.31040 24.80793 2737 ft 242 kts 292°
2026-05-07 13:24 60.31759 24.77589 3449 ft 256 kts 296°
2026-05-07 13:24 60.32580 24.74396 4496 ft 256 kts 299°
2026-05-07 13:24 60.33444 24.71259 5592 ft 256 kts 301°
2026-05-07 13:25 60.34333 24.68112 6552 ft 260 kts 302°
2026-05-07 13:25 60.35476 24.65272 7426 ft 264 kts 320°
2026-05-07 13:25 60.37063 24.63404 8347 ft 268 kts 339°
2026-05-07 13:25 60.38925 24.62755 9188 ft 277 kts
2026-05-07 13:26 60.40849 24.63407 10011 ft 286 kts 11°
2026-05-07 13:26 60.42839 24.64337 10488 ft 304 kts 11°
2026-05-07 13:26 60.44980 24.65326 10821 ft 325 kts 11°
2026-05-07 13:26 60.47221 24.66352 11475 ft 334 kts 10°
2026-05-07 13:27 60.49508 24.67398 12228 ft 339 kts
2026-05-07 13:27 60.51828 24.68465 12991 ft 345 kts
2026-05-07 13:27 60.54186 24.69547 13757 ft 350 kts
2026-05-07 13:27 60.56585 24.70640 14391 ft 356 kts
2026-05-07 13:28 60.59017 24.71749 15056 ft 361 kts
2026-05-07 13:28 60.61483 24.72874 15710 ft 365 kts
2026-05-07 13:28 60.63976 24.74025 16364 ft 370 kts
2026-05-07 13:28 60.66502 24.75199 17018 ft 374 kts
2026-05-07 13:29 60.69054 24.76386 17649 ft 379 kts
2026-05-07 13:29 60.71639 24.77587 18292 ft 383 kts
2026-05-07 13:29 60.74256 24.78800 18841 ft 388 kts
2026-05-07 13:29 60.76900 24.80028 19392 ft 392 kts
2026-05-07 13:30 60.79574 24.81275 19939 ft 396 kts
2026-05-07 13:30 60.82283 24.82470 20480 ft 398 kts
2026-05-07 13:30 60.85035 24.83164 21047 ft 401 kts 360°
2026-05-07 13:30 60.87820 24.83813 21585 ft 405 kts 360°
2026-05-07 13:31 60.90636 24.84469 22131 ft 409 kts 359°
2026-05-07 13:31 60.93478 24.85133 22672 ft 413 kts 359°
2026-05-07 13:31 60.96348 24.85808 23197 ft 418 kts 359°
2026-05-07 13:31 60.99249 24.86496 23740 ft 422 kts 359°
2026-05-07 13:32 61.01230 24.86968 24025 ft 424 kts 359°
2026-05-07 13:32 61.04175 24.87672 24454 ft 428 kts 359°
2026-05-07 13:32 61.07139 24.88382 24878 ft 431 kts 359°
2026-05-07 13:32 61.10136 24.89098 25290 ft 435 kts 359°
2026-05-07 13:33 61.13150 24.89816 25696 ft 438 kts 359°
2026-05-07 13:33 61.16191 24.90541 26107 ft 442 kts 359°
2026-05-07 13:33 61.19263 24.91279 26467 ft 446 kts 359°
2026-05-07 13:33 61.22360 24.92031 26846 ft 449 kts 359°
2026-05-07 13:34 61.25477 24.92790 27218 ft 453 kts 359°
2026-05-07 13:34 61.31772 24.94330 27954 ft 459 kts 358°
2026-05-07 13:34 61.34955 24.95106 28305 ft 462 kts 358°
2026-05-07 13:35 61.38159 24.95878 28667 ft 465 kts 358°
2026-05-07 13:35 61.41382 24.96650 29012 ft 468 kts 358°
2026-05-07 13:35 61.44620 24.97431 29403 ft 471 kts 358°
2026-05-07 13:35 61.47887 24.98229 29730 ft 474 kts 358°
2026-05-07 13:36 61.51175 24.99041 30038 ft 477 kts 358°
2026-05-07 13:36 61.54479 24.99861 30307 ft 480 kts 358°
2026-05-07 13:36 61.57799 25.00684 30577 ft 481 kts 358°
2026-05-07 13:36 61.61130 25.01457 30857 ft 480 kts 355°
2026-05-07 13:37 61.64446 25.01676 31130 ft 477 kts 353°
2026-05-07 13:37 61.67816 25.01801 31399 ft 478 kts 353°
2026-05-07 13:37 61.71145 25.01925 31670 ft 479 kts 353°
2026-05-07 13:37 61.74474 25.02051 32041 ft 478 kts 353°
2026-05-07 13:38 61.77793 25.02176 32427 ft 477 kts 353°
2026-05-07 13:38 61.81063 25.02298 32789 ft 475 kts 353°
2026-05-07 13:38 61.84412 25.02428 33238 ft 473 kts 354°
2026-05-07 13:38 61.87690 25.02557 33633 ft 471 kts 354°
2026-05-07 13:39 61.90964 25.02687 34014 ft 470 kts 354°
2026-05-07 13:39 61.94230 25.02817 34333 ft 469 kts 354°
2026-05-07 13:39 61.97489 25.02944 34609 ft 468 kts 354°
2026-05-07 13:39 62.00747 25.03066 34862 ft 468 kts 354°
2026-05-07 13:40 62.04004 25.03183 35120 ft 468 kts 354°
2026-05-07 13:40 62.07260 25.03300 35354 ft 468 kts 354°
2026-05-07 13:40 62.10517 25.03418 35621 ft 468 kts 354°
2026-05-07 13:40 62.13773 25.03541 35851 ft 468 kts 355°
2026-05-07 13:41 62.17034 25.03668 36012 ft 469 kts 355°
2026-05-07 13:41 62.23519 25.03939 36047 ft 464 kts 355°
2026-05-07 13:42 62.29965 25.04195 36057 ft 463 kts 354°
2026-05-07 13:42 62.36402 25.04433 36047 ft 463 kts 355°
2026-05-07 13:43 62.42839 25.04679 36051 ft 463 kts 355°
2026-05-07 13:43 62.49276 25.04921 36060 ft 463 kts 355°
2026-05-07 13:44 62.55718 25.05173 36086 ft 463 kts 355°
2026-05-07 13:44 62.62149 25.05430 36080 ft 462 kts 355°
2026-05-07 13:45 62.68582 25.05668 36073 ft 462 kts 355°
2026-05-07 13:45 62.75011 25.05918 36089 ft 462 kts 355°
2026-05-07 13:46 62.81445 25.06168 36081 ft 462 kts 355°
2026-05-07 13:46 62.84706 25.06296 35924 ft 463 kts 355°
2026-05-07 13:46 62.87930 25.06429 35680 ft 463 kts 355°
2026-05-07 13:46 62.91144 25.06560 35439 ft 462 kts 355°
2026-05-07 13:47 62.94365 25.06688 35206 ft 462 kts 355°
2026-05-07 13:47 62.97581 25.06817 34977 ft 463 kts 355°
2026-05-07 13:47 63.00802 25.06949 34752 ft 463 kts 355°
2026-05-07 13:47 63.04017 25.07085 34520 ft 462 kts 355°
2026-05-07 13:48 63.07227 25.07219 34293 ft 460 kts 355°
2026-05-07 13:48 63.10418 25.07351 34098 ft 459 kts 355°
2026-05-07 13:48 63.13606 25.07487 33838 ft 457 kts 355°
2026-05-07 13:48 63.16778 25.07619 33564 ft 455 kts 355°
2026-05-07 13:49 63.19937 25.07744 33160 ft 453 kts 355°
2026-05-07 13:49 63.23073 25.07873 32610 ft 449 kts 354°
2026-05-07 13:49 63.26188 25.08004 32067 ft 446 kts 354°
2026-05-07 13:49 63.29278 25.08132 31580 ft 442 kts 354°
2026-05-07 13:50 63.32346 25.08253 31062 ft 439 kts 354°
2026-05-07 13:50 63.35388 25.08371 30553 ft 436 kts 354°
2026-05-07 13:50 63.38411 25.08489 30037 ft 433 kts 354°
2026-05-07 13:50 63.41415 25.08608 29446 ft 430 kts 354°
2026-05-07 13:51 63.44398 25.08731 28848 ft 427 kts 354°
2026-05-07 13:51 63.47361 25.08855 28255 ft 424 kts 354°
2026-05-07 13:51 63.50303 25.08973 27675 ft 422 kts 354°
2026-05-07 13:51 63.53223 25.09087 27105 ft 419 kts 354°
2026-05-07 13:52 63.56133 25.09202 26546 ft 416 kts 354°
2026-05-07 13:52 63.59022 25.09322 26001 ft 414 kts 354°
2026-05-07 13:52 63.61894 25.09445 25464 ft 412 kts 354°
2026-05-07 13:52 63.64752 25.09571 24938 ft 410 kts 354°
2026-05-07 13:53 63.67592 25.09693 24426 ft 408 kts 354°
2026-05-07 13:53 63.70423 25.09812 23916 ft 406 kts 354°
2026-05-07 13:53 63.73241 25.09935 23367 ft 404 kts 354°
2026-05-07 13:53 63.76044 25.10055 22771 ft 402 kts 355°
2026-05-07 13:54 63.78812 25.10177 22172 ft 393 kts 355°
2026-05-07 13:54 63.81514 25.10298 21586 ft 383 kts 355°
2026-05-07 13:54 63.84145 25.10407 21018 ft 374 kts 356°
2026-05-07 13:54 63.86711 25.10507 20450 ft 365 kts 356°
2026-05-07 13:55 63.89230 25.10603 19892 ft 359 kts 356°
2026-05-07 13:55 63.91710 25.10697 19352 ft 355 kts 357°
2026-05-07 13:55 63.94184 25.10789 18824 ft 356 kts 357°
2026-05-07 13:55 63.96653 25.10884 18335 ft 353 kts 358°
2026-05-07 13:56 63.99123 25.10987 17735 ft 348 kts 358°
2026-05-07 13:56 64.01531 25.11095 17140 ft 344 kts 358°
2026-05-07 13:56 64.03909 25.11202 16591 ft 340 kts 358°
2026-05-07 13:56 64.06246 25.11305 16291 ft 333 kts 358°
2026-05-07 13:57 64.08562 25.11407 16030 ft 331 kts 359°
2026-05-07 13:57 64.10858 25.11507 15765 ft 330 kts 359°
2026-05-07 13:57 64.13154 25.11602 15501 ft 329 kts 359°
2026-05-07 13:57 64.15434 25.11699 15233 ft 327 kts 359°
2026-05-07 13:58 64.17708 25.11795 14970 ft 326 kts 359°
2026-05-07 13:58 64.19973 25.11891 14715 ft 325 kts 359°
2026-05-07 13:58 64.22233 25.11989 14459 ft 324 kts 359°
2026-05-07 13:58 64.24479 25.12081 14204 ft 322 kts 359°
2026-05-07 13:59 64.26717 25.12176 13950 ft 321 kts 359°
2026-05-07 13:59 64.28947 25.12271 13684 ft 320 kts 359°
2026-05-07 13:59 64.31170 25.12365 13395 ft 319 kts 359°
2026-05-07 13:59 64.33383 25.12461 13088 ft 318 kts 359°
2026-05-07 14:00 64.35593 25.12558 12642 ft 317 kts 359°
2026-05-07 14:00 64.37795 25.12658 12208 ft 316 kts 359°
2026-05-07 14:00 64.39996 25.12757 11778 ft 315 kts 359°
2026-05-07 14:00 64.42162 25.13145 11463 ft 312 kts
2026-05-07 14:01 64.44244 25.14609 11159 ft 313 kts 24°
2026-05-07 14:01 64.46144 25.17051 10776 ft 311 kts 32°
2026-05-07 14:01 64.48010 25.19713 10427 ft 310 kts 32°
2026-05-07 14:01 64.49848 25.22335 10171 ft 310 kts 32°
2026-05-07 14:02 64.51674 25.24938 9959 ft 303 kts 32°
2026-05-07 14:02 64.53447 25.27462 9823 ft 297 kts 31°
2026-05-07 14:02 64.55207 25.29972 9682 ft 297 kts 32°
2026-05-07 14:02 64.56966 25.32486 9503 ft 296 kts 32°
2026-05-07 14:03 64.58716 25.34991 9137 ft 294 kts 32°
2026-05-07 14:03 64.60453 25.37482 8759 ft 292 kts 31°
2026-05-07 14:03 64.62183 25.39970 8376 ft 291 kts 31°
2026-05-07 14:03 64.63343 25.41640 8121 ft 289 kts 31°
2026-05-07 14:04 64.65050 25.44102 7743 ft 288 kts 31°
2026-05-07 14:04 64.66737 25.46540 7450 ft 282 kts 31°
2026-05-07 14:04 64.68390 25.48935 7086 ft 279 kts 31°
2026-05-07 14:04 64.70034 25.51314 6731 ft 276 kts 30°
2026-05-07 14:05 64.71670 25.53688 6277 ft 277 kts 30°
2026-05-07 14:05 64.73281 25.56031 5891 ft 267 kts 30°
2026-05-07 14:05 64.74819 25.58266 5556 ft 254 kts 30°
2026-05-07 14:05 64.76309 25.60427 5205 ft 244 kts 31°
2026-05-07 14:06 64.77752 25.62516 4855 ft 243 kts 29°
2026-05-07 14:06 64.79197 25.64581 4496 ft 242 kts 29°
2026-05-07 14:06 64.80630 25.66617 4158 ft 232 kts 29°
2026-05-07 14:06 64.82023 25.68355 3824 ft 220 kts 13°
2026-05-07 14:07 64.83476 25.68532 3540 ft 202 kts 342°
2026-05-07 14:07 64.84690 25.67172 3261 ft 188 kts 314°
2026-05-07 14:07 64.85479 25.64826 3009 ft 176 kts 297°
2026-05-07 14:07 64.86093 25.62423 2712 ft 166 kts 297°
2026-05-07 14:08 64.86682 25.60145 2415 ft 160 kts 297°
2026-05-07 14:08 64.87254 25.57926 2079 ft 158 kts 297°
2026-05-07 14:08 64.87800 25.55809 1920 ft 145 kts 297°
2026-05-07 14:08 64.88318 25.53809 1698 ft 139 kts 297°
2026-05-07 14:09 64.88800 25.51941 1494 ft 130 kts 297°
2026-05-07 14:09 64.89257 25.50166 1288 ft 125 kts 297°
2026-05-07 14:09 64.89706 25.48416 1075 ft 124 kts 296°
2026-05-07 14:09 64.90148 25.46688 851 ft 124 kts 297°
2026-05-07 14:10 64.90588 25.44938 673 ft 123 kts 296°
2026-05-07 14:10 64.91027 25.43201 569 ft 125 kts 298°
2026-05-07 14:10 64.91479 25.41457 412 ft 124 kts 299°
2026-05-07 14:10 64.91931 25.39698 270 ft 124 kts 300°
2026-05-07 14:11 64.92373 25.37957 107 ft 123 kts 300°
2026-05-07 14:11 64.92800 25.36293 53 ft 106 kts 300°
2026-05-07 14:11 64.93091 25.35159 53 ft 56 kts 301°
2026-05-07 14:11 64.93218 25.34662 52 ft 27 kts 302°
2026-05-07 14:12 64.93305 25.34320 55 ft 22 kts 301°
2026-05-07 14:12 64.93394 25.34106 59 ft 19 kts 329°
2026-05-07 14:12 64.93506 25.34099 53 ft 18 kts 36°
2026-05-07 14:12 64.93491 25.34349 55 ft 16 kts 121°
2026-05-07 14:13 64.93434 25.34574 56 ft 16 kts 121°
2026-05-07 14:13 64.93378 25.34793 54 ft 15 kts 121°
2026-05-07 14:13 64.93323 25.35008 55 ft 15 kts 121°
2026-05-07 14:13 64.93261 25.35249 54 ft 17 kts 121°
2026-05-07 14:14 64.93190 25.35522 53 ft 21 kts 121°
2026-05-07 14:14 64.93116 25.35810 54 ft 20 kts 121°
2026-05-07 14:14 64.93047 25.36084 51 ft 19 kts 121°
2026-05-07 14:14 64.92980 25.36348 52 ft 18 kts 121°
2026-05-07 14:15 64.92916 25.36602 52 ft 18 kts 121°
2026-05-07 14:15 64.92854 25.36845 51 ft 17 kts 121°
2026-05-07 14:15 64.92793 25.37084 50 ft 17 kts 121°
2026-05-07 14:15 64.92775 25.37245 50 ft 8 kts 75°
2026-05-07 14:16 64.92795 25.37343 49 ft 6 kts 32°
2026-05-07 14:16 64.92807 25.37363 50 ft 0 kts 34°